Starlink 3672

operational
NORAD ID: 51974 Int'l Des: 2022-025 Owner: SPXS Country: US Constellation: starlink
LEOCIRCULARSTARLINK_TYPE

About Starlink 3672

Description loading...

Live Position

Loading 3D Globe...

Upcoming Passes

Altitude History

Altitude vs Time

uPlot chart will show altitude changes over time

Two-Line Element Set

1 51974U 22025U 25259.25716163 .00000860 00000-0 76640-4 0 9992
2 51974 53.0550 93.9438 0001338 92.2366 267.8776 15.06398754194628
Epoch: Sep 16, 2025 • Age: 7 hours

Current Status

Altitude 547.9 km
Velocity 7.59 km/s
Sub-Earth Point 26.44°N, 71.51°W
Launch Date Mar 9, 2022
Age 3.5 years
Type internet

Technical Details

Classification Payload
Mass 297.00 kg
Dry Mass 275.00 kg
Total Mass 297.00 kg
Length 0.20 m
Diameter 2.80 m
Span 9.00 m
Shape Box + pan
Manufacturer SPXS
Bus Type Starlink
Phase Status In Orbit
Owner/State SPXS/US

Large Constellations

Loading constellations...